Rock Hill, SC

11:29 PM EDT on September 29, 2016 (GMT -0400)
Rock Hill-York County-Bryant

Weather History for KUZA - August, 2014

Change the Weather History Date:

Tuesday, August 26, 2014

  Actual Average Record
Temperature  
Mean Temperature 72 °F -  
Max Temperature 82 °F 87 °F 100 °F (2016)
Min Temperature 63 °F 68 °F 53 °F (1952)
Cooling Degree Days 8    
Growing Degree Days 22 (Base 50)    
Moisture  
Dew Point 61 °F    
Average Humidity 73    
Maximum Humidity 93    
Minimum Humidity 51    
Precipitation  
Precipitation 0.00 in - - ()
Sea Level Pressure  
Sea Level Pressure 30.10 in    
Wind  
Wind Speed 5 mph (NNE)    
Max Wind Speed 10 mph    
Max Gust Speed 18 mph    
Visibility 10 miles    
Events      
Averages and records for this station are not official NWS values.
T = Trace of Precipitation, MM = Missing Value Source: NWS Daily Summary

Daily Weather History Graph

Daily Weather History Graph

Search for Another Location

Airport or City:

Trip Planner

Search our weather history database for the weather conditions in past years. The results will help you decide how hot, cold, wet, or windy it might be!

Date:

Astronomy

Aug. 26, 2014 Rise Set
Actual Time 6:52 AM EDT 7:58 PM EDT
Civil Twilight 6:26 AM EDT 8:25 PM EDT
Nautical Twilight 5:55 AM EDT 8:56 PM EDT
Astronomical Twilight 5:23 AM EDT 9:28 PM EDT
Moon 7:47 AM EDT (8/26) 8:24 PM EDT (8/26)
Length of Visible Light 13h 58m
Length of Day
13h 06m
New Moon, 1% of the Moon is Illuminated
Aug 26
New Moon
Sep 2
First Quarter
Sep 8
Full
Sep 15
Last Quarter
Sep 24
New

Hourly Weather History & Observations

Time (EDT) Temp. Heat Index Dew Point Humidity Pressure Visibility Wind Dir Wind Speed Gust Speed Precip Events Conditions
12:54 AM 69.1 °F - 60.1 °F 73% 30.11 in 10.0 mi Variable 4.6 mph - N/A   Clear
1:54 AM 64.9 °F - 60.1 °F 84% 30.11 in 10.0 mi NNE 4.6 mph - N/A   Clear
2:54 AM 64.0 °F - 60.1 °F 87% 30.10 in 10.0 mi NNE 4.6 mph - N/A   Clear
3:54 AM 64.0 °F - 60.1 °F 87% 30.09 in 10.0 mi Calm Calm - N/A   Clear
4:54 AM 63.0 °F - 60.1 °F 90% 30.09 in 10.0 mi NNE 3.5 mph - N/A   Clear
5:54 AM 63.0 °F - 60.1 °F 90% 30.10 in 10.0 mi Variable 3.5 mph - N/A   Clear
6:54 AM 63.0 °F - 61.0 °F 93% 30.12 in 9.0 mi NNE 8.1 mph - N/A   Clear
7:54 AM 64.9 °F - 62.1 °F 90% 30.13 in 10.0 mi NNE 8.1 mph - N/A   Clear
8:54 AM 68.0 °F - 62.1 °F 81% 30.13 in 10.0 mi NNE 6.9 mph - N/A   Clear
9:54 AM 72.0 °F - 61.0 °F 68% 30.14 in 10.0 mi Variable 6.9 mph - N/A   Clear
10:54 AM 73.9 °F - 59.0 °F 59% 30.15 in 10.0 mi NE 6.9 mph - N/A   Scattered Clouds
11:54 AM 77.0 °F - 60.1 °F 56% 30.14 in 10.0 mi NNE 6.9 mph - N/A   Partly Cloudy
12:54 PM 78.1 °F - 61.0 °F 56% 30.13 in 10.0 mi North 10.4 mph - N/A   Clear
1:54 PM 79.0 °F - 61.0 °F 54% 30.11 in 10.0 mi North 9.2 mph 18.4 mph N/A   Clear
2:54 PM 81.0 °F 81.9 °F 62.1 °F 52% 30.08 in 10.0 mi North 6.9 mph - N/A   Clear
3:54 PM 82.0 °F 83.0 °F 62.1 °F 51% 30.06 in 10.0 mi North 6.9 mph - N/A   Clear
5:54 PM 82.0 °F 83.1 °F 63.0 °F 52% 30.05 in 10.0 mi NNE 8.1 mph - N/A   Clear
6:54 PM 80.1 °F 81.2 °F 62.1 °F 54% 30.06 in 10.0 mi NNE 3.5 mph - N/A   Clear
7:54 PM 73.9 °F - 61.0 °F 64% 30.07 in 10.0 mi Calm Calm - N/A   Clear
8:54 PM 66.9 °F - 61.0 °F 81% 30.09 in 10.0 mi North 3.5 mph - N/A   Clear
9:54 PM 64.9 °F - 61.0 °F 87% 30.09 in 10.0 mi Calm Calm - N/A   Clear
10:54 PM 64.9 °F - 60.1 °F 84% 30.10 in 10.0 mi Calm Calm - N/A   Clear
11:54 PM 66.0 °F - 60.1 °F 81% 30.09 in 10.0 mi NNE 3.5 mph - N/A   Clear